Stündliche Wetter Jufureh

Heute, 24 Februar, Mittwoch

Zeit Temperatur Niederschläge Wind Luftdruck Luftfeuchtigkeit
00:00 +24°C° 0 mm 3 m/S 757 mmHg 53%
01:00 +24°C° 0 mm 3 m/S 757 mmHg 50%
02:00 +24°C° 0 mm 3 m/S 757 mmHg 47%
03:00 +22°C° 0 mm 3 m/S 757 mmHg 44%
04:00 +22°C° 0 mm 3 m/S 757 mmHg 41%
05:00 +22°C° 0 mm 3 m/S 757 mmHg 34%
06:00 +24°C° 0 mm 3 m/S 757 mmHg 29%
07:00 +25°C° 0 mm 3 m/S 758 mmHg 24%
08:00 +27°C° 0 mm 3 m/S 758 mmHg 19%
09:00 +30°C° 0 mm 4 m/S 758 mmHg 15%
10:00 +35°C° 0 mm 4 m/S 758 mmHg 11%
11:00 +39°C° 0 mm 5 m/S 758 mmHg 8%
12:00 +40°C° 0 mm 5 m/S 757 mmHg 8%
13:00 +41°C° 0 mm 4 m/S 756 mmHg 7%
14:00 +42°C° 0 mm 4 m/S 755 mmHg 7%
15:00 +41°C° 0 mm 4 m/S 755 mmHg 7%
16:00 +41°C° 0 mm 5 m/S 755 mmHg 8%
17:00 +40°C° 0 mm 5 m/S 755 mmHg 9%
18:00 +35°C° 0 mm 5 m/S 755 mmHg 17%
19:00 +30°C° 0 mm 5 m/S 756 mmHg 24%
20:00 +26°C° 0 mm 5 m/S 757 mmHg 32%
21:00 +26°C° 0 mm 4 m/S 757 mmHg 32%
22:00 +25°C° 0 mm 4 m/S 757 mmHg 32%
23:00 +24°C° 0 mm 3 m/S 757 mmHg 32%

Morgen, 25 Februar, Donnerstag

Zeit Temperatur Niederschläge Wind Luftdruck Luftfeuchtigkeit
00:00 +24°C° 0 mm 3 m/S 757 mmHg 29%
01:00 +22°C° 0 mm 3 m/S 756 mmHg 27%
02:00 +22°C° 0 mm 3 m/S 756 mmHg 24%
03:00 +22°C° 0 mm 3 m/S 756 mmHg 23%
04:00 +21°C° 0 mm 3 m/S 756 mmHg 22%
05:00 +21°C° 0 mm 3 m/S 756 mmHg 21%
06:00 +22°C° 0 mm 3 m/S 757 mmHg 18%
07:00 +25°C° 0 mm 3 m/S 757 mmHg 15%
08:00 +26°C° 0 mm 4 m/S 758 mmHg 12%
09:00 +30°C° 0 mm 4 m/S 757 mmHg 10%
10:00 +34°C° 0 mm 5 m/S 757 mmHg 8%
11:00 +39°C° 0 mm 6 m/S 757 mmHg 6%
12:00 +40°C° 0 mm 5 m/S 756 mmHg 6%
13:00 +41°C° 0 mm 5 m/S 755 mmHg 6%
14:00 +42°C° 0 mm 5 m/S 754 mmHg 6%
15:00 +42°C° 0 mm 4 m/S 754 mmHg 6%
16:00 +41°C° 0 mm 4 m/S 754 mmHg 6%
17:00 +41°C° 0 mm 4 m/S 754 mmHg 7%
18:00 +36°C° 0 mm 3 m/S 755 mmHg 14%
19:00 +30°C° 0 mm 3 m/S 755 mmHg 21%
20:00 +26°C° 0 mm 3 m/S 756 mmHg 28%
21:00 +25°C° 0 mm 3 m/S 756 mmHg 32%
22:00 +24°C° 0 mm 2 m/S 756 mmHg 35%
23:00 +23°C° 0 mm 2 m/S 757 mmHg 39%

übermorgen, 26 Februar, Freitag

Zeit Temperatur Niederschläge Wind Luftdruck Luftfeuchtigkeit
00:00 +23°C° 0 mm 2 m/S 756 mmHg 36%
01:00 +23°C° 0 mm 2 m/S 756 mmHg 33%
02:00 +23°C° 0 mm 2 m/S 756 mmHg 30%
03:00 +23°C° 0 mm 2 m/S 756 mmHg 27%
04:00 +22°C° 0 mm 3 m/S 756 mmHg 24%
05:00 +22°C° 0 mm 3 m/S 755 mmHg 21%
06:00 +23°C° 0 mm 4 m/S 756 mmHg 18%
07:00 +26°C° 0 mm 6 m/S 757 mmHg 16%
08:00 +28°C° 0 mm 7 m/S 757 mmHg 13%
09:00 +32°C° 0 mm 7 m/S 757 mmHg 11%
10:00 +34°C° 0 mm 7 m/S 757 mmHg 10%
11:00 +38°C° 0 mm 7 m/S 757 mmHg 8%
12:00 +39°C° 0 mm 7 m/S 756 mmHg 8%
13:00 +40°C° 0 mm 6 m/S 755 mmHg 7%
14:00 +42°C° 0 mm 6 m/S 754 mmHg 7%
15:00 +41°C° 0 mm 5 m/S 754 mmHg 7%
16:00 +41°C° 0 mm 5 m/S 754 mmHg 7%
17:00 +40°C° 0 mm 4 m/S 753 mmHg 8%
18:00 +36°C° 0 mm 4 m/S 754 mmHg 11%
19:00 +33°C° 0 mm 3 m/S 754 mmHg 15%
20:00 +28°C° 0 mm 3 m/S 755 mmHg 18%
21:00 +27°C° 0 mm 2 m/S 755 mmHg 20%
22:00 +26°C° 0 mm 2 m/S 756 mmHg 22%
23:00 +25°C° 0 mm 2 m/S 756 mmHg 23%

27 Februar, Samstag

Zeit Temperatur Niederschläge Wind Luftdruck Luftfeuchtigkeit
00:00 +24°C° 0 mm 2 m/S 756 mmHg 22%
01:00 +24°C° 0 mm 2 m/S 755 mmHg 21%
02:00 +22°C° 0 mm 3 m/S 755 mmHg 20%
03:00 +22°C° 0 mm 3 m/S 755 mmHg 20%
04:00 +21°C° 0 mm 3 m/S 755 mmHg 20%
05:00 +21°C° 0 mm 3 m/S 755 mmHg 20%
06:00 +22°C° 0 mm 3 m/S 756 mmHg 18%
07:00 +23°C° 0 mm 4 m/S 756 mmHg 16%
08:00 +26°C° 0 mm 4 m/S 757 mmHg 14%
09:00 +29°C° 0 mm 4 m/S 757 mmHg 12%
10:00 +33°C° 0 mm 5 m/S 757 mmHg 10%
11:00 +36°C° 0 mm 5 m/S 757 mmHg 8%
12:00 +37°C° 0 mm 4 m/S 756 mmHg 8%
13:00 +38°C° 0 mm 4 m/S 755 mmHg 8%
14:00 +40°C° 0 mm 4 m/S 754 mmHg 7%
15:00 +38°C° 0 mm 4 m/S 754 mmHg 9%
16:00 +37°C° 0 mm 5 m/S 754 mmHg 11%
17:00 +35°C° 0 mm 6 m/S 754 mmHg 13%
18:00 +32°C° 0 mm 6 m/S 754 mmHg 20%
19:00 +29°C° 0 mm 6 m/S 755 mmHg 28%
20:00 +26°C° 0 mm 6 m/S 755 mmHg 35%
21:00 +26°C° 0 mm 5 m/S 755 mmHg 33%
22:00 +26°C° 0 mm 5 m/S 755 mmHg 30%
23:00 +25°C° 0 mm 5 m/S 756 mmHg 28%

28 Februar, Sonntag

Zeit Temperatur Niederschläge Wind Luftdruck Luftfeuchtigkeit
00:00 +25°C° 0 mm 5 m/S 755 mmHg 28%
01:00 +25°C° 0 mm 5 m/S 755 mmHg 28%
02:00 +25°C° 0 mm 4 m/S 755 mmHg 28%
03:00 +23°C° 0 mm 4 m/S 755 mmHg 28%
04:00 +23°C° 0 mm 4 m/S 755 mmHg 28%
05:00 +22°C° 0 mm 4 m/S 755 mmHg 29%
06:00 +22°C° 0 mm 4 m/S 755 mmHg 28%
07:00 +23°C° 0 mm 4 m/S 756 mmHg 28%
08:00 +23°C° 0 mm 4 m/S 756 mmHg 28%
09:00 +27°C° 0 mm 4 m/S 756 mmHg 23%
10:00 +29°C° 0 mm 4 m/S 756 mmHg 18%
11:00 +33°C° 0 mm 4 m/S 756 mmHg 13%
12:00 +34°C° 0 mm 4 m/S 755 mmHg 12%
13:00 +35°C° 0 mm 3 m/S 755 mmHg 11%
14:00 +37°C° 0 mm 3 m/S 754 mmHg 9%
15:00 +36°C° 0 mm 4 m/S 754 mmHg 12%
16:00 +34°C° 0 mm 5 m/S 754 mmHg 15%
17:00 +33°C° 0 mm 6 m/S 753 mmHg 17%
18:00 +29°C° 0 mm 6 m/S 754 mmHg 28%
19:00 +26°C° 0 mm 6 m/S 754 mmHg 39%
20:00 +22°C° 0 mm 5 m/S 755 mmHg 49%
21:00 +22°C° 0 mm 5 m/S 755 mmHg 45%
22:00 +22°C° 0 mm 5 m/S 755 mmHg 40%
23:00 +22°C° 0 mm 5 m/S 756 mmHg 36%

1 März, Montag

Zeit Temperatur Niederschläge Wind Luftdruck Luftfeuchtigkeit
00:00 +22°C° 0 mm 5 m/S 755 mmHg 36%
01:00 +21°C° 0 mm 5 m/S 755 mmHg 36%
02:00 +20°C° 0 mm 4 m/S 755 mmHg 35%
03:00 +20°C° 0 mm 4 m/S 755 mmHg 36%
04:00 +20°C° 0 mm 4 m/S 755 mmHg 37%
05:00 +19°C° 0 mm 4 m/S 755 mmHg 37%
06:00 +20°C° 0 mm 4 m/S 755 mmHg 36%
07:00 +21°C° 0 mm 5 m/S 756 mmHg 35%
08:00 +22°C° 0 mm 5 m/S 756 mmHg 34%
09:00 +26°C° 0 mm 4 m/S 756 mmHg 28%
10:00 +29°C° 0 mm 4 m/S 756 mmHg 22%
11:00 +33°C° 0 mm 4 m/S 756 mmHg 16%
12:00 +35°C° 0 mm 4 m/S 755 mmHg 14%
13:00 +37°C° 0 mm 4 m/S 754 mmHg 12%
14:00 +38°C° 0 mm 4 m/S 754 mmHg 10%
15:00 +37°C° 0 mm 5 m/S 753 mmHg 15%
16:00 +35°C° 0 mm 5 m/S 753 mmHg 19%
17:00 +34°C° 0 mm 6 m/S 753 mmHg 23%
18:00 +30°C° 0 mm 5 m/S 754 mmHg 31%
19:00 +28°C° 0 mm 5 m/S 754 mmHg 40%
20:00 +25°C° 0 mm 5 m/S 754 mmHg 48%
21:00 +25°C° 0 mm 5 m/S 755 mmHg 43%
22:00 +25°C° 0 mm 5 m/S 755 mmHg 38%
23:00 +25°C° 0 mm 5 m/S 755 mmHg 33%
Mehr zeigen

Wir brauchen deine Erlaubnis

Meteoprog und unser Service Anbieter werden persönliche Daten aufbewahren, so wie Cookies, Geräte Bezeichnung oder ähnliche Technologien von deinem Gerät und Prozess, so wie Persönliche Daten Inhalte und Werbungen, genauso wie social Media und den Verkehr zu analysieren.

  • Aufbewahrung und/oder Zugang zu deiner Geräte Informationen.

    Cookies, Geräte Bezeichnung oder andere Informationen, können aufbewahrt oder Zugang zu deinem Gerät erhalten, für den Grund, der oben angegeben wird.

  • Personalisierte Werbung und Inhalte, Messungen, Einblick in das Publikum und Produkt Entwicklung.

    Werbungen und Inhalte können personalisiert werden, basierend auf ein Profil. Mehr Daten können besser personalisierte Werbungen und Inhalte hinzufügen. Werbung und Inhalte können gezeigt und gemessen werden. Einblicke über das Publikum, welche die Werbung gesehen haben und den Inhalt, können abgeleitet werden. So wie Daten können genutzt werden, um es zu verbessern oder die Benutzer Erfahrung zu verbessern das System und die Software.

Wenn du “Ich stimme zu” klickst, erlaubst du uns, die Cookies zu benutzen die Geräte Bezeichnung, den Web oder ähnliche Technologien zu benutzen. Deine Settings, können in deinem Gerät bei deinem Browser geändert werden.

Für den bestimmten Zweck, berechtigten Interessen beruhen darauf, mehr als auf den Inhalt. Du kannst mehr darüber in unseren Privaten und Cookie Politik lesen.